Weather History for KFFL - November, 2013

Change the Weather History Date:

Thursday, November 14, 2013

  Actual Average Record
Temperature  
Mean Temperature 43 °F -  
Max Temperature 53 °F 48 °F 74 °F (1990)
Min Temperature 33 °F 30 °F 10 °F (2014)
Degree Days  
Heating Degree Days 22    
Moisture  
Dew Point 23 °F    
Average Humidity 46    
Maximum Humidity 60    
Minimum Humidity 30    
Precipitation  
Precipitation 0.00 in - - ()
Sea Level Pressure  
Sea Level Pressure 29.99 in    
Wind  
Wind Speed 12 mph (SSW)    
Max Wind Speed 22 mph    
Max Gust Speed 29 mph    
Visibility 10 miles    
Events Snow    
Averages and records for this station are not official NWS values.
T = Trace of Precipitation, MM = Missing Value Source: NWS Daily Summary

Daily Weather History Graph

Daily Weather History Graph

Search for Another Location

Airport or City:

Trip Planner

Search our weather history database for the weather conditions in past years. The results will help you decide how hot, cold, wet, or windy it might be!

Date:

Astronomy

Nov. 14, 2013 Rise Set
Actual Time 6:54 AM CST 4:49 PM CST
Civil Twilight 6:25 AM CST 5:19 PM CST
Nautical Twilight 5:51 AM CST 5:52 PM CST
Astronomical Twilight 5:19 AM CST 6:24 PM CST
Moon 3:12 PM CST (11/14) 3:48 AM CST (11/14)
Length of Visible Light 10h 54m
Length of Day
9h 55m
Waxing Gibbous, 92% of the Moon is Illuminated
Nov 14
Waxing Gibbous
Nov 17
Full
Nov 25
Last Quarter
Dec 2
New
Dec 9
First Quarter

Hourly Weather History & Observations

Time (CST) Temp. Windchill Dew Point Humidity Pressure Visibility Wind Dir Wind Speed Gust Speed Precip Events Conditions
12:15 AM 33.8 °F 27.0 °F 17.6 °F 52% 30.13 in 10.0 mi South 8.1 mph - N/A   Clear
12:35 AM 33.8 °F 26.4 °F 17.6 °F 52% 30.11 in 10.0 mi South 9.2 mph - N/A   Clear
12:55 AM 33.8 °F 25.8 °F 17.6 °F 52% 30.10 in 10.0 mi SSW 10.4 mph - N/A   Clear
1:15 AM 33.8 °F 26.4 °F 17.6 °F 52% 30.10 in 10.0 mi SSW 9.2 mph - N/A   Clear
1:35 AM 33.8 °F 25.8 °F 19.4 °F 56% 30.09 in 10.0 mi SSW 10.4 mph - N/A   Clear
1:55 AM 35.6 °F 27.1 °F 19.4 °F 52% 30.09 in 10.0 mi SSW 12.7 mph - N/A   Clear
2:15 AM 35.6 °F 27.5 °F 19.4 °F 52% 30.08 in 10.0 mi SSW 11.5 mph - N/A   Clear
2:35 AM 35.6 °F 28.0 °F 19.4 °F 52% 30.08 in 10.0 mi SSW 10.4 mph - N/A   Clear
2:55 AM 35.6 °F 28.0 °F 19.4 °F 52% 30.07 in 10.0 mi SSW 10.4 mph - N/A   Clear
3:15 AM 35.6 °F 26.6 °F 21.2 °F 56% 30.06 in 10.0 mi SSW 13.8 mph - N/A   Clear
3:35 AM 37.4 °F 28.9 °F 21.2 °F 52% 30.06 in 10.0 mi SSW 13.8 mph - N/A   Clear
3:55 AM 37.4 °F 28.5 °F 21.2 °F 52% 30.05 in 10.0 mi SSW 15.0 mph - N/A   Clear
4:15 AM 37.4 °F 28.9 °F 21.2 °F 52% 30.05 in 10.0 mi SSW 13.8 mph - N/A Snow Light Snow
4:35 AM 37.4 °F 28.9 °F 21.2 °F 52% 30.04 in 10.0 mi SSW 13.8 mph 20.7 mph N/A Snow Light Snow
4:55 AM 37.4 °F 29.3 °F 21.2 °F 52% 30.04 in 10.0 mi SSW 12.7 mph 18.4 mph N/A Snow Light Snow
5:15 AM 33.8 °F 27.7 °F 21.2 °F 60% 30.04 in 10.0 mi South 6.9 mph - N/A   Clear
5:35 AM 33.8 °F 27.0 °F 21.2 °F 60% 30.04 in 10.0 mi South 8.1 mph - N/A   Clear
5:55 AM 33.8 °F 27.7 °F 21.2 °F 60% 30.03 in 10.0 mi South 6.9 mph - N/A   Clear
6:15 AM 33.8 °F 27.7 °F 21.2 °F 60% 30.03 in 10.0 mi South 6.9 mph - N/A   Clear
6:35 AM 33.8 °F 27.0 °F 21.2 °F 60% 30.03 in 10.0 mi SSW 8.1 mph - N/A   Clear
6:55 AM 35.6 °F 27.5 °F 21.2 °F 56% 30.03 in 10.0 mi SSW 11.5 mph - N/A   Clear
7:15 AM 35.6 °F 27.5 °F 21.2 °F 56% 30.03 in 10.0 mi SSW 11.5 mph - N/A   Clear
7:35 AM 37.4 °F 29.8 °F 23.0 °F 56% 30.03 in 10.0 mi SSW 11.5 mph - N/A   Clear
7:55 AM 39.2 °F 31.2 °F 23.0 °F 52% 30.03 in 10.0 mi SSW 13.8 mph 20.7 mph N/A   Clear
8:15 AM 39.2 °F 31.2 °F 23.0 °F 52% 30.03 in 10.0 mi SW 13.8 mph 23.0 mph N/A   Clear
8:35 AM 41.0 °F 32.2 °F 23.0 °F 49% 30.03 in 10.0 mi SW 18.4 mph - N/A   Clear
8:55 AM 42.8 °F 34.8 °F 23.0 °F 46% 30.03 in 10.0 mi SW 17.3 mph 24.2 mph N/A   Clear
9:15 AM 44.6 °F 36.9 °F 23.0 °F 43% 30.03 in 10.0 mi SW 18.4 mph - N/A   Clear
9:35 AM 44.6 °F 36.6 °F 23.0 °F 43% 30.02 in 10.0 mi SW 19.6 mph - N/A   Clear
9:55 AM 46.4 °F 39.0 °F 23.0 °F 40% 30.02 in 10.0 mi SW 19.6 mph - N/A   Clear
10:15 AM 46.4 °F 38.5 °F 23.0 °F 40% 30.02 in 10.0 mi SW 21.9 mph - N/A   Clear
10:35 AM 48.2 °F - 23.0 °F 37% 30.02 in 10.0 mi SW 19.6 mph 28.8 mph N/A   Clear
10:55 AM 50.0 °F - 23.0 °F 35% 30.01 in 10.0 mi SW 18.4 mph 26.5 mph N/A   Clear
11:15 AM 51.8 °F - 23.0 °F 33% 30.01 in 10.0 mi SW 15.0 mph 21.9 mph N/A   Clear
11:35 AM 51.8 °F - 23.0 °F 33% 30.00 in 10.0 mi SW 15.0 mph 23.0 mph N/A   Clear
11:55 AM 51.8 °F - 23.0 °F 33% 29.98 in 10.0 mi SSW 18.4 mph - N/A   Clear
12:15 PM 53.6 °F - 23.0 °F 30% 29.97 in 10.0 mi SSW 16.1 mph - N/A   Clear
12:35 PM 51.8 °F - 24.8 °F 35% 29.96 in 10.0 mi SSW 16.1 mph 23.0 mph N/A   Clear
12:55 PM 51.8 °F - 23.0 °F 33% 29.95 in 10.0 mi SSW 16.1 mph - N/A   Clear
1:15 PM 51.8 °F - 24.8 °F 35% 29.94 in 10.0 mi SSW 16.1 mph - N/A   Clear
1:35 PM 53.6 °F - 24.8 °F 33% 29.93 in 10.0 mi SSW 16.1 mph - N/A   Clear
1:55 PM 53.6 °F - 24.8 °F 33% 29.92 in 10.0 mi SSW 18.4 mph - N/A   Clear
2:15 PM 53.6 °F - 24.8 °F 33% 29.92 in 10.0 mi SSW 18.4 mph 26.5 mph N/A   Clear
2:35 PM 53.6 °F - 23.0 °F 30% 29.92 in 10.0 mi SSW 18.4 mph - N/A   Clear
2:55 PM 53.6 °F - 24.8 °F 33% 29.91 in 10.0 mi SSW 17.3 mph - N/A   Clear
3:15 PM 53.6 °F - 24.8 °F 33% 29.92 in 10.0 mi SW 15.0 mph 21.9 mph N/A   Clear
3:35 PM 53.6 °F - 24.8 °F 33% 29.93 in 10.0 mi SSW 15.0 mph - N/A   Clear
3:55 PM 53.6 °F - 24.8 °F 33% 29.92 in 10.0 mi SW 15.0 mph - N/A   Clear
4:15 PM 51.8 °F - 24.8 °F 35% 29.93 in 10.0 mi SW 15.0 mph - N/A   Clear
4:35 PM 50.0 °F - 24.8 °F 37% 29.93 in 10.0 mi SW 11.5 mph - N/A   Clear
4:55 PM 50.0 °F - 24.8 °F 37% 29.93 in 10.0 mi SW 9.2 mph - N/A   Clear
5:15 PM 48.2 °F - 24.8 °F 40% 29.93 in 10.0 mi SSW 9.2 mph - N/A   Clear
5:35 PM 48.2 °F - 24.8 °F 40% 29.94 in 10.0 mi SSW 10.4 mph - N/A   Clear
5:55 PM 48.2 °F - 24.8 °F 40% 29.94 in 10.0 mi SSW 9.2 mph - N/A   Clear
6:15 PM 46.4 °F 42.4 °F 24.8 °F 43% 29.95 in 10.0 mi SSW 8.1 mph - N/A   Clear
6:35 PM 44.6 °F 39.7 °F 24.8 °F 46% 29.95 in 10.0 mi SSW 9.2 mph - N/A   Clear
6:55 PM 46.4 °F 41.1 °F 24.8 °F 43% 29.94 in 10.0 mi SSW 11.5 mph - N/A   Clear
7:15 PM 44.6 °F 40.2 °F 24.8 °F 46% 29.94 in 10.0 mi SSW 8.1 mph - N/A   Clear
7:35 PM 44.6 °F 39.7 °F 24.8 °F 46% 29.94 in 10.0 mi SSW 9.2 mph - N/A   Scattered Clouds
7:55 PM 42.8 °F 38.0 °F 24.8 °F 49% 29.95 in 10.0 mi SSW 8.1 mph - N/A   Partly Cloudy
8:15 PM 42.8 °F 38.0 °F 24.8 °F 49% 29.94 in 10.0 mi SSW 8.1 mph - N/A   Scattered Clouds
8:35 PM 42.8 °F 38.0 °F 24.8 °F 49% 29.94 in 10.0 mi South 8.1 mph - N/A   Mostly Cloudy
8:55 PM 42.8 °F 37.5 °F 24.8 °F 49% 29.94 in 10.0 mi SSW 9.2 mph - N/A   Overcast
9:15 PM 42.8 °F 37.5 °F 24.8 °F 49% 29.94 in 10.0 mi SSW 9.2 mph - N/A   Mostly Cloudy
9:35 PM 42.8 °F 37.5 °F 24.8 °F 49% 29.94 in 10.0 mi SSW 9.2 mph - N/A   Partly Cloudy
9:55 PM 41.0 °F 35.8 °F 24.8 °F 53% 29.94 in 10.0 mi SSW 8.1 mph - N/A   Clear
10:15 PM 41.0 °F 36.4 °F 24.8 °F 53% 29.94 in 10.0 mi SSW 6.9 mph - N/A   Clear
10:35 PM 41.0 °F 35.8 °F 24.8 °F 53% 29.94 in 10.0 mi SSW 8.1 mph - N/A   Clear
10:55 PM 39.2 °F 33.6 °F 24.8 °F 56% 29.94 in 10.0 mi SSW 8.1 mph - N/A   Partly Cloudy
11:15 PM 39.2 °F 33.6 °F 24.8 °F 56% 29.94 in 10.0 mi SSW 8.1 mph - N/A   Partly Cloudy
11:35 PM 41.0 °F 35.8 °F 24.8 °F 53% 29.94 in 10.0 mi SSW 8.1 mph - N/A   Mostly Cloudy
11:55 PM 41.0 °F 36.4 °F 26.6 °F 57% 29.94 in 10.0 mi SSW 6.9 mph - N/A   Overcast